Home   Weather   Yokohama   Past weeks

Flag for Japan Past Weather in Yokohama, Japan — Yesterday and Last 2 Weeks

Now
50 °F

Passing clouds.


Feels Like: 43 °F
Forecast: 44 / 54 °F
Wind: 22 mph from North

Location: Tokyo International Airport

Current Time: Dec 10, 2016 at 8:09:09 am

Latest Report: Dec 10, 2016 at 7:30 am


Visibility: N/A

Pressure: 29.92 "Hg

Humidity: 50%

Dew Point: 32 °F

Location of YokohamaLocation

Past Weather in Yokohama — Graph

°F

Yokohama Temperature Yesterday

Maximum temperature yesterday: 63 °F (at 10:47 am)
Minimum temperature yesterday: 43 °F (at 6:30 am)
Average temperature yesterday: 54 °F

High & Low Weather Summary for the Past Weeks

 TemperatureHumidityPressure
High64 °F (Dec 1, 5:30 pm)100% (Nov 27, 6:30 pm)30.51 "Hg (Nov 27, 6:30 pm)
Low37 °F (Nov 25, 7:00 am)33% (Dec 2, 11:30 am)29.68 "Hg (Dec 9, 3:00 pm)
Average52 °F62%30.05 "Hg
* Reported Nov 25 7:00 am — Dec 10 7:00 am, Yokohama, Weather by CustomWeather, © 2016

Note: Actual official high and low records may vary slightly from our data, if they occured in-between our weather recording intervals... More about our weather records

Advertising

Yokohama Weather History for the Previous 24 Hours

Scroll right to see more
 ConditionsComfort  
Time TempWeatherWind HumidityBarometerVisibility
7:00 am
Sat, Dec 10
50 °FPassing clouds.21 mph54%29.89 "HgN/A
6:30 am50 °FPassing clouds.21 mph54%29.89 "HgN/A
6:00 am50 °FPassing clouds.18 mph47%29.86 "HgN/A
5:30 am48 °FClear.17 mph50%29.86 "Hg10 mi
5:00 am50 °FClear.16 mph50%29.86 "Hg10 mi
4:30 am50 °FClear.13 mph47%29.86 "Hg10 mi
4:00 am48 °FClear.8 mph50%29.83 "Hg10 mi
3:30 am50 °FClear.9 mph47%29.83 "Hg10 mi
3:00 am50 °FPassing clouds.12 mph47%29.83 "HgN/A
2:30 am50 °FPassing clouds.10 mph47%29.80 "HgN/A
2:00 am50 °FClear.10 mph50%29.80 "Hg10 mi
1:30 am50 °FClear.12 mph50%29.80 "Hg10 mi
1:00 am50 °FClear.12 mph50%29.80 "Hg10 mi
12:30 am50 °FClear.10 mph54%29.80 "Hg10 mi
12:00 am52 °FPassing clouds.5 mph50%29.77 "HgN/A
11:30 pm
Fri, Dec 9
52 °FClear.6 mph54%29.77 "Hg10 mi
11:00 pm52 °FClear.7 mph54%29.77 "Hg10 mi
10:30 pm50 °FPassing clouds.7 mph58%29.77 "HgN/A
10:00 pm54 °FPassing clouds.12 mph51%29.74 "HgN/A
9:30 pm52 °FClear.10 mph54%29.74 "Hg10 mi
9:00 pm55 °FClear.10 mph47%29.74 "Hg10 mi
8:30 pm57 °FClear.13 mph44%29.74 "Hg10 mi
8:00 pm59 °FClear.16 mph42%29.74 "Hg10 mi
7:30 pm57 °FClear.15 mph44%29.74 "Hg10 mi
7:00 pm57 °FClear.15 mph44%29.71 "Hg10 mi
6:30 pm59 °FClear.16 mph42%29.71 "Hg10 mi
6:00 pm59 °FClear.18 mph39%29.71 "Hg10 mi
5:30 pm59 °FPassing clouds.16 mph42%29.71 "HgN/A
5:00 pm59 °FPassing clouds.20 mph45%29.71 "HgN/A
4:30 pm61 °FPassing clouds.21 mph45%29.71 "HgN/A
4:00 pm61 °FPassing clouds.25 mph42%29.71 "HgN/A
3:47 pm61 °FPassing clouds.22 mph45%29.71 "HgN/A
3:30 pm61 °FPassing clouds.22 mph42%29.71 "HgN/A
3:00 pm63 °FPassing clouds.26 mph42%29.68 "HgN/A
2:30 pm63 °FPassing clouds.25 mph42%29.71 "HgN/A
1:30 pm63 °FPassing clouds.25 mph42%29.71 "HgN/A
1:00 pm63 °FPassing clouds.22 mph42%29.74 "HgN/A
12:30 pm63 °FPassing clouds.29 mph42%29.74 "HgN/A
12:00 pm63 °FPassing clouds.30 mph42%29.77 "HgN/A
11:45 am63 °FPassing clouds.26 mph42%29.77 "HgN/A
11:30 am63 °FPassing clouds.24 mph42%29.77 "HgN/A
11:00 am63 °FPassing clouds.21 mph45%29.80 "HgN/A
10:47 am63 °FPassing clouds.21 mph42%29.80 "HgN/A
10:30 am61 °FPassing clouds.23 mph45%29.83 "HgN/A
10:00 am59 °FPassing clouds.15 mph51%29.83 "HgN/A
9:30 am52 °FPassing clouds.6 mph62%29.86 "HgN/A
9:00 am50 °FPassing clouds.3 mph62%29.89 "HgN/A
8:30 am48 °FPassing clouds.1 mph54%29.89 "HgN/A
8:00 am46 °FPassing clouds.6 mph57%29.92 "HgN/A
Weather by CustomWeather, © 2016

See weather overviewHow to use our weather pages